Regional Weather Roundup
Issued by NWS

Home | Current Version | Previous Version | Text Only | Print | Product List | Glossary Off
Versions: 1 2 3 4 5 6 7 8 9 10 11 12 13 14 15 16 17 18 19 20 21 22 23 24 25 26 27 28 29 30 31 32 33 34 35 36 37 38 39 40 41 42 43 44 45 46 47 48 49 50

000
ASUS43 KMPX 240510
RWRMN
WEATHER ROUNDUP FOR MINNESOTA
NATIONAL WEATHER SERVICE TWIN CITIES/CHANHASSEN MN
1200 AM CDT THU JUL 24 2014


NOTE: "FAIR" INDICATES FEW OR NO CLOUDS BELOW 12,000 FEET WITH NO
SIGNIFICANT WEATHER AND/OR OBSTRUCTIONS TO VISIBILITY. N/A MEANS
CURRENT SKY AND/OR WEATHER CONDITIONS ARE NOT AVAILABLE.

MNZ060>063-068>070-240600-
   Twin Cities Metro

CITY           SKY/WX    TMP DP  RH WIND       PRES   REMARKS
TWIN CITIES    CLEAR     69  55  60 N3        30.16R
ST PAUL        CLEAR     68  55  63 N3        30.16R
CRYSTAL        CLEAR     65  56  72 CALM      30.16R
BLAINE         CLEAR     64  57  77 CALM      30.17R
LAKEVILLE      CLEAR     57  55  94 CALM      30.16S
EDEN PRAIRIE   CLEAR     66  57  72 N3        30.15S
SOUTH ST PAUL  CLEAR     68  54  60 CALM      30.15S
LAKE ELMO      FAIR      61  57  88 CALM      30.17S
$$
MNZ001>005-007-008-013>017-022>024-027-028-240600-
   Northwest Minnesota

CITY           SKY/WX    TMP DP  RH WIND       PRES   REMARKS
BEMIDJI        CLEAR     56  53  89 CALM      30.18F
HALLOCK        PTCLDY    59  55  88 CALM      30.17F
ROSEAU         CLEAR     57  52  82 CALM      30.18F
WARROAD        CLEAR     55  52  88 S1        30.19F
THIEF RVR FALL CLEAR     61  55  82 N3        30.18F
CROOKSTON      PTCLDY    61  57  88 CALM      30.18S
FOSSTON        CLEAR     55  50  82 CALM      30.19F
DETROIT LAKES  CLEAR     63  59  88 CALM      30.20R
MOORHEAD       CLEAR     66  63  88 E3        30.17F
PARK RAPIDS    CLEAR     61  56  83 CALM      30.19S
$$
MNZ006-009>011-018-025>026-240600-
   North Central Minnesota

CITY           SKY/WX    TMP DP  RH WIND       PRES   REMARKS
BAUDETTE       PTCLDY    57  55  93 CALM      30.19F
FLAG ISLAND    CLEAR     66  46  48 E5        30.17S
INTL FALLS     CLEAR     50  50 100 CALM      30.19S
WASKISH        CLEAR     54  52  94 CALM      30.19S
BIG FORK       CLEAR     54  52  94 CALM      30.20S
LONGVILLE      CLEAR     55  54  94 CALM      30.18S
GRAND RAPIDS   PTCLDY    57  54  88 CALM      30.19S
CRANE LAKE     CLEAR     48  48 100 CALM      30.21F
ORR            CLEAR     50  46  87 CALM      30.18S
COOK           CLEAR     52  50  93 CALM      30.21S
$$
MNZ012-019>021-037-240600-
   Northeast Minnesota

CITY           SKY/WX    TMP DP  RH WIND       PRES   REMARKS
DULUTH         PTCLDY    59  51  75 E5        30.19R
ELY            CLEAR     50  48  93 CALM      30.21R
HIBBING        CLEAR     51  49  92 CALM      30.19S
EVELETH        CLEAR     52  50  93 CALM      30.21S
DULUTH HARBOR  CLEAR     55  54  94 NE8       30.19S
TWO HARBORS    CLEAR     52  46  82 N3        30.18R
SILVER BAY     CLEAR     50  50 100 CALM      30.18S
GRAND MARAIS     N/A     50  48  93 CALM      30.18S
G MARAIS ARPRT CLEAR     46  43  87 CALM      30.21S
$$
MNZ029>031-032-039>041-046>048-054>057-064-240600-
   West Central Minnesota

CITY           SKY/WX    TMP DP  RH WIND       PRES   REMARKS
FERGUS FALLS   CLEAR     64  57  77 E3        30.18S
WHEATON        CLEAR     61  57  88 SE3       30.19S
MORRIS         CLEAR     61  57  88 CALM      30.17S
ALEXANDRIA     CLEAR     64  56  75 CALM      30.20R
ELBOW LAKE     FAIR      66  59  78 E3        30.19R
WADENA         CLEAR     55  54  94 CALM      30.18F
GLENWOOD       CLEAR     63  55  77 NE6       30.20R
APPLETON       CLEAR     63  57  82 CALM      30.17S
BENSON         CLEAR     57  57 100 CALM      30.18S
ORTONVILLE     CLEAR     68  57  68 E5        30.17S
MADISON        CLEAR     66  57  72 CALM      30.18R
WILLMAR        FAIR      63  55  77 CALM      30.19S
$$
MNZ033>034-036-042>043-049>051-058-059-240600-
   Central Minnesota

CITY           SKY/WX    TMP DP  RH WIND       PRES   REMARKS
ST CLOUD       CLEAR     59  55  87 CALM      30.17S
SAUK CENTRE    FAIR      60  57  91 CALM      30.19S
PAYNESVILLE    CLEAR     55  53  95 CALM      30.18F
AITKIN         CLEAR     55  50  82 CALM      30.17S
PINE RIVER     CLEAR     55  55 100 CALM      30.21S
BRAINERD       CLEAR     56  55  97 CALM      30.18S
STAPLES        CLEAR     57  55  94 CALM      30.19S
LONG PRAIRIE   FAIR      61  55  82 CALM      30.19S
LITTLE FALLS   CLEAR     55  54  94 CALM      30.18S
LITCHFIELD       N/A     63  57  82 CALM      30.18F
BUFFALO        CLEAR     62  55  76 CALM      30.18S
MAPLE LAKE     CLEAR     59  57  92 CALM      30.18S
$$
MNZ037-044-045-052-053-240600-
   East Central Minnesota

CITY           SKY/WX    TMP DP  RH WIND       PRES   REMARKS
PRINCETON      CLEAR     57  55  94 CALM      30.17S
MORA           CLEAR     55  55 100 CALM      30.19R
CAMBRIDGE      CLEAR     61  52  72 CALM      30.15S
RUSH CITY      PTCLDY    57  55  93 CALM      30.17S
MOOSE LAKE     PTCLDY    55  54  94 NE3       30.17R
HINCKLEY       FAIR      59  59 100 CALM      30.17S
CLOQUET        CLEAR     57  52  82 CALM      30.19R
MCGREGOR       CLEAR     57  55  94 CALM      30.19S
$$
MNZ071>073-080-081-089-090-097-098-240600-
   Southwest Minnesota

CITY           SKY/WX    TMP DP  RH WIND       PRES   REMARKS
MONTEVIDEO     CLEAR     64  57  77 CALM      30.18S
GRANITE FALLS  CLEAR     63  57  81 CALM      30.19S
CANBY          CLEAR     61  58  88 CALM      30.19S
MARSHALL       CLEAR     63  55  77 SW5       30.17S
REDWOOD FALLS  CLEAR     67  54  63 E5        30.17S
OLIVIA         CLEAR     63  54  72 CALM      30.17S
PIPESTONE      CLEAR     63  55  77 CALM      30.20S
WINDOM         CLEAR     63  54  72 CALM      30.19S
WORTHINGTON    CLEAR     61  55  82 CALM      30.20S
JACKSON        CLEAR     59  54  82 CALM      30.19S
TRACY          CLEAR     65  56  73 CALM      30.19R
SLAYTON        CLEAR     61  56  83 CALM      30.21R
$$
MNZ065>067-074>077-082>085-091>093-240600-
   South Central Minnesota

CITY           SKY/WX    TMP DP  RH WIND       PRES   REMARKS
MANKATO        CLEAR     66  50  55 CALM      30.17R
NEW ULM        CLEAR     63  54  72 CALM      30.17S
ST JAMES       CLEAR     61  55  82 CALM      30.19R
FAIRMONT       CLEAR     61  54  77 N7        30.18R
GLENCOE        CLEAR     62  53  72 CALM      30.17R
FARIBAULT      CLEAR     61  52  72 CALM      30.17S
OWATONNA       CLEAR     57  54  88 CALM      30.17S
WASECA         CLEAR     59  52  77 CALM      30.19S
ALBERT LEA     CLEAR     61  57  88 CALM      30.17S
$$
MNZ078>079-086>088-094>096-240600-
   Southeast Minnesota

CITY           SKY/WX    TMP DP  RH WIND       PRES   REMARKS
ROCHESTER      PTCLDY    66  54  65 CALM      30.18S
RED WING       CLEAR     61  57  88 CALM      30.15S
STANTON        CLEAR     59  55  88 S3        30.15S
DODGE CENTER   CLEAR     64  57  77 CALM      30.18S
WINONA         PTCLDY    63  59  88 CALM      30.16S
AUSTIN         CLEAR     61  57  88 CALM      30.17S
PRESTON        CLEAR     64  58  80 CALM      30.18R
$$
ABBREVIATIONS USED IN REMARKS
   TC - TEMPERATURES IN CELSIUS
  WCI - WIND CHILL INDEX
   HX - HEAT INDEX
  VSB - VISIBILITY
$$


USA.gov is the U.S. government's official web portal to all federal, state and local government web resources and services.